Regional Weather Roundup
Issued by NWS

Home | Current Version | Previous Version | Text Only | Print | Product List | Glossary On
Versions: 1 2 3 4 5 6 7 8 9 10 11 12 13 14 15 16 17 18 19 20 21 22 23 24 25 26 27 28 29 30 31 32 33 34 35 36 37 38 39 40 41 42 43 44 45 46 47 48 49 50
000
ASUS44 KLUB 290910
RWRTX
WEST TEXAS WEATHER ROUNDUP
NATIONAL WEATHER SERVICE LUBBOCK TX
300 AM CST THU JAN 29 2015

NOTE: "FAIR" INDICATES FEW OR NO CLOUDS BELOW 12,000 FEET WITH NO
SIGNIFICANT WEATHER AND/OR OBSTRUCTIONS TO VISIBILITY.

TXZ004-006>008-010-012-014-016-OKZ002-291000-
TEXAS PANHANDLE/OKLAHOMA PANHANDLE

CITY           SKY/WX    TMP DP  RH WIND       PRES   REMARKS
AMARILLO       MOCLDY    45  34  65 N13       30.25R
BORGER         MOCLDY    49  33  54 N10       30.26R
CANADIAN       MOCLDY    48  36  62 NW5       30.23R
DALHART        CLOUDY    44  32  62 N13       30.29R
DUMAS          CLOUDY    40  33  75 N14       30.28R WCI  33
GUYMON         MOCLDY    42  33  70 NW12      30.28R
HEREFORD       MOCLDY    44  37  75 NE12      30.23S
PAMPA          MOCLDY    43  34  70 N7        30.25R
PERRYTON         N/A     42  33  69 NW10      30.25R
$$

TXZ026-029-035-045-048-291000-
SOUTHERN PANHANDLE/SOUTH PLAINS/ROLLING PLAINS

CITY           SKY/WX    TMP DP  RH WIND       PRES   REMARKS
CHILDRESS      CLEAR    N/A N/A N/A N10       30.17R
SEMINOLE       PTCLDY    40  36  84 NW7       30.17S
LUBBOCK        PTCLDY    43  33  68 NE8       30.16S
PLAINVIEW      PTCLDY    43  34  70 NE9       30.19R
SNYDER         CLEAR    N/A N/A N/A CALM      30.16R
$$

TXZ052-054-060>062-072-078-127-140-154-169-291000-
PERMIAN BASIN/CONCHO VALLEY/BIG COUNTRY/EDWARDS PLATEAU

CITY           SKY/WX    TMP DP  RH WIND       PRES   REMARKS
ABILENE        PTCLDY    52  43  71 SW3       30.14R
BIG SPRING     PTCLDY    54  42  64 CALM      30.16S
BRADY          CLEAR     59  39  47 S9        30.11S
BROWNWOOD      PTCLDY    48  39  71 CALM      30.12R
JUNCTION       CLEAR     44  38  79 W5        30.13S
MIDLAND        PTCLDY    49  42  77 N7        30.13R
ODESSA         PTCLDY    57  38  48 SW5       30.14R
SAN ANGELO     PTCLDY    51  40  65 CALM      30.11R
SONORA         PTCLDY    43  37  81 CALM      30.17S
SWEETWATER     PTCLDY    59  43  55 CALM      30.18R
WINK           CLEAR     45  39  79 N7        30.12R
$$

TXZ055-058-074-075-080-082-291000-
FAR WEST/SOUTHWEST MOUNTAINS/TRANS PECOS

CITY           SKY/WX    TMP DP  RH WIND       PRES   REMARKS
ALPINE         PTCLDY    46  41  84 SW6       30.25R
DRYDEN           N/A     56  40  55 N9        30.09S
EL PASO        MOCLDY    44  37  76 CALM      30.18R
FORT STOCKTON  CLEAR     57  47  69 SW12      30.12R
GUADALUPE PASS MOCLDY    53  33  46 VRB6      30.23R
MARFA          PTCLDY    39  37  93 N8        30.22S WCI  34
PECOS          CLEAR     47  42  84 CALM      30.12R
PRESIDIO       FAIR      55  46  72 N8        30.12R
$$

TXZ014-016-019-021>030-083-291000
TEXAS TECH WEST TEXAS MESONET/TEXAS PANHANDLE/NORTHERN SOUTH PLAINS

CITY           SKY/WX    TMP DP  RH WIND       PRES   REMARKS
$$

TXZ033>036-039>041-045>048-291000
TEXAS TECH WEST TEXAS MESONET/SOUTH PLAINS

CITY           SKY/WX    TMP DP  RH WIND       PRES   REMARKS
$$

TXZ031-032-036>038-042>044-291000-
TEXAS TECH WEST TEXAS MESONET/ROLLING PLAINS

CITY           SKY/WX    TMP DP  RH WIND       PRES   REMARKS
$$

TXZ052-054-060>062-072-078-127-140-154-169-291000-
TEXAS TECH WEST TEXAS MESONET/PERMIAN BASIN/
CONCHO VALLEY/BIG COUNTRY/EDWARDS PLATEAU

CITY           SKY/WX    TMP DP  RH WIND       PRES   REMARKS
$$

TXZ055-058-074-075-080-082-291000-
TEXAS TECH WEST TEXAS MESONET/FAR WEST/SOUTHWEST MOUNTAINS/TRANS PECOS

CITY           SKY/WX    TMP DP  RH WIND       PRES   REMARKS
$$


USA.gov is the U.S. government's official web portal to all federal, state and local government web resources and services.